Regional Weather Roundup
Issued by NWS Northern Indiana

Home | Current Version | Previous Version | Text Only | Print | Product List | Glossary On
Versions: 1 2 3 4 5 6 7 8 9 10 11 12 13 14 15 16 17 18 19 20 21 22 23 24 25 26 27 28 29 30 31 32 33 34 35 36 37 38 39 40 41 42 43 44 45 46 47 48 49 50
000
ASUS43 KIWX 020010
RWRIWX

KIWX WEATHER ROUNDUP
NATIONAL WEATHER SERVICE NORTHERN INDIANA
700 PM EST SUN FEB 01 2015

NOTE: "FAIR" INDICATES FEW OR NO CLOUDS BELOW 12,000 FEET WITH NO
SIGNIFICANT WEATHER AND/OR OBSTRUCTIONS TO VISIBILITY.

* THESE STATIONS ARE NOT UNDER NWS QUALITY CONTROL. THEY ALSO MAY NOT
  REPORT WEATHER SUCH AS PRECIPITATION OR FOG.

INZ001>027-020100-
NORTHERN INDIANA

CITY           SKY/WX    TMP DP  RH WIND       PRES   REMARKS
GARY*          LGT SNOW  25  19  80 NE23G39   29.75R VSB 1   WCI  10
VALPARAISO     LGT SNOW  20  17  88 NE15G23   29.67F FOG     WCI   6
6HR MIN TEMP:  20; 6HR MAX TEMP:  31; 6HR PCP:  0.06;

MICHIGAN CITY* LGT SNOW  21  18  86 NE9G16    29.72S WCI  11
LAPORTE*       LGT SNOW  22  19  90 NE10G17   29.69S WCI  11
6HR MIN TEMP:  22; 6HR MAX TEMP:  32; 6HR PCP:  0.01;

KNOX*          CLOUDY    23  18  80 NE14G22   29.65S WCI  11
SOUTH BEND     LGT SNOW  20  15  81 NE18G29   29.69S WCI   5
6HR MIN TEMP:  20; 6HR MAX TEMP:  29; 6HR PCP:  0.54;

GOSHEN         LGT SNOW  21  18  88 NE16G23   29.68R VSB 3/4 WCI   7
6HR MIN TEMP:  21; 6HR MAX TEMP:  27; 6HR PCP:  0.06;

MONTICELLO*    LGT SNOW  29  29  97 NE12      29.59S WCI  20
6HR MIN TEMP:  29; 6HR MAX TEMP:  32; 6HR PCP:  0.12;

LOGANSPORT*    LGT SNOW  30  30 100 NE7       29.59S WCI  23
ROCHESTER*     LGT SNOW  28  28 100 NE13      29.62S WCI  18
WARSAW*        LGT SNOW  25  23  93 NE13G18   29.64F WCI  13
ANGOLA*        CLOUDY    19  18  93 NE14      29.66S WCI   6
FORT WAYNE     LGT SNOW  26  23  88 NE17      29.61F VSB 3/4 WCI  13
6HR MIN TEMP:  26; 6HR MAX TEMP:  32; 6HR PCP:  0.36;

HUNTINGTON*    LGT SNOW  27  23  86 NE10      29.59F WCI  17
6HR MIN TEMP:  27; 6HR MAX TEMP:  32; 6HR PCP:  0.20;

PERU/GRISSOM   LGT SNOW  31  30  95 NE16      29.57F FOG     WCI  20
6HR MIN TEMP:  31; 6HR MAX TEMP:  33; 6HR PCP:  0.32;

MARION*        MIX PCPN  32  32 100 NE8       29.57F WCI  25
6HR MIN TEMP:  -2; 6HR MAX TEMP:  46; 6HR PCP:  0.12;


$$
INZ028>050-020100-
CENTRAL INDIANA

CITY           SKY/WX    TMP DP  RH WIND       PRES   REMARKS
LAFAYETTE      LGT SNOW  32  31  96 N5        29.58F FOG     WCI  27
6HR MIN TEMP:  32; 6HR MAX TEMP:  33; 6HR PCP:  0.08;

KOKOMO*        CLOUDY    34  30  86 NE12      29.57F WCI  25
6HR MIN TEMP:  32; 6HR MAX TEMP:  34; 6HR PCP:  0.31;

MUNCIE*        LGT RAIN  34  32  92 N8        29.55F FOG     WCI  27
6HR MIN TEMP:  33; 6HR MAX TEMP:  34; 6HR PCP:  0.28;

INDIANAPOLIS   FOG       32  32 100 W5        29.55F VSB 1   WCI  27
6HR MIN TEMP:  31; 6HR MAX TEMP:  33; 6HR PCP:  0.12;


$$
MIZ043>046-050>051-056>058-064>065-071>073-077>080-020100-
SOUTHWEST LOWER MICHIGAN

CITY           SKY/WX    TMP DP  RH WIND       PRES   REMARKS
BATTLE CREEK   LGT SNOW  16  11  80 NE22G30   29.76S VSB 3/4 WCI  -2
6HR MIN TEMP:  16; 6HR MAX TEMP:  22; 6HR PCP:  0.02;

BENTON HARBOR  SNOW      16  13  88 NE15G30   29.74F VSB 1/2 WCI   1
6HR MIN TEMP:  16; 6HR MAX TEMP:  22; 6HR PCP:  0.03;

COLDWATER*     LGT SNOW  18  15  90 MISG      29.71S
6HR MIN TEMP:  18; 6HR MAX TEMP:  24;

HILLSDALE*     LGT SNOW  21  18  89 NE12G20   29.68S WCI   9
6HR MIN TEMP:  21; 6HR MAX TEMP:  24;

HOLLAND        LGT SNOW  16  10  77 NE15G26   29.83S VSB 1   WCI   1
6HR MIN TEMP:  16; 6HR MAX TEMP:  19; 6HR PCP:  0.04;

GRAND RAPIDS   LGT SNOW  14  10  84 NE18G38   29.84S VSB 3/4 WCI  -3
6HR MIN TEMP:  14; 6HR MAX TEMP:  17; 6HR PCP:  0.12;

KALAMAZOO      LGT SNOW  16  11  80 NE15G24   29.77R VSB 3/4 WCI   1
6HR MIN TEMP:  16; 6HR MAX TEMP:  22; 6HR PCP:  0.11;

STURGIS*       LGT SNOW  18  16  93 NE22G28   29.69S WCI   0
THREE RIVERS*  LGT SNOW  17  13  84 NE20G29   29.73S WCI   1

$$
OHZ001>008-015>018-024>025-020100-
NORTHWEST OHIO

CITY           SKY/WX    TMP DP  RH WIND       PRES   REMARKS
DEFIANCE       SNOW      25  22  88 NE16G24   29.66F VSB 1/2 WCI  12
6HR MIN TEMP:  25; 6HR MAX TEMP:  29; 6HR PCP: TRACE;

FINDLAY        LGT SNOW  34  32  92 NE8       29.60F FOG     WCI  27
6HR MIN TEMP:  33; 6HR MAX TEMP:  34; 6HR PCP:  0.18;

TOLEDO EXPRESS HVY SNOW  23  21  92 NE20G30   29.68F VSB 1/4 WCI   8
6HR MIN TEMP:  23; 6HR MAX TEMP:  27; 6HR PCP:  0.23;

TOLEDO METCALF SNOW      25  21  85 NE20G31   29.70F VSB 1/2 WCI  11
6HR MIN TEMP:  25; 6HR MAX TEMP:  30; 6HR PCP:  0.15;

LIMA           LGT RAIN  35  33  92 E8        29.56F FOG     WCI  29
6HR MIN TEMP:  34; 6HR MAX TEMP:  36; 6HR PCP:  0.30;


$$
AND FOR LAKE MICHIGAN COASTAL AND OPEN LAKE BUOY OBSERVATIONS

STATION/POSITION TEMP    WIND        PRES    VSBY  WAVE
                 AIR SEA DIR/SP/G                  HT/PER
                 (F)     (DEG/KT/KT) (MB)    (MI)  (FT/S)
CALUMET HARBOR    22      30/ 21/ 29   N/A
MICHIGAN CITY     20      30/ 29/ 31   N/A
SAINT JOSEPH      17      20/ 10/ 17 1008.1R

$$
&&


USA.gov is the U.S. government's official web portal to all federal, state and local government web resources and services.